Location: Laterina
(43.5167°N, 11.7167°E)
Time: 16:35:42
(UTC+00:00)

CZ-2C R/B - Pass Details

Date: 24 September 2020
Orbit: 785 x 870 km, 98.2° (Epoch: 25 October)

Event Time Altitude Azimuth Distance (km) Brightness Sun altitude
Rises 19:06:10 0° 12° (NNE) 3,437 6.0 -22.1°
Reaches altitude 10° 19:08:32 10° 11° (NNE) 2,505 5.3 -22.5°
Maximum altitude 19:14:08 81° 286° (WNW) 882 2.8 -23.5°
Drops below altitude 10° 19:19:44 10° 199° (SSW) 2,509 5.1 -24.4°
Sets 19:22:07 0° 198° (SSW) 3,442 5.8 -24.8°
